Location: Bletchingley
(51.2333°N, 0.1000°W)
Time: 05:06:09
(UTC+00:00)

MOS 1 Rocket - Pass Details

Date: 18 September 2020
Orbit: 614 x 831 km, 97.4° (Epoch: 20 October)

Event Time Altitude Azimuth Distance (km) Brightness Sun altitude
Rises 18:56:23 0° 16° (NNE) 3,048 6.6 -8.5°
Reaches altitude 10° 18:58:45 10° 21° (NNE) 2,097 5.7 -8.9°
Maximum altitude 19:03:12 52° 99° (E) 798 3.3 -9.5°
Drops below altitude 10° 19:07:25 10° 176° (S) 1,993 5.5 -10.2°
Sets 19:09:36 0° 181° (S) 2,882 6.3 -10.5°
